Weather History for Mobile, AL

Change the Weather History Date:

Monday, March 25, 2013

  Actual Average Record
Temperature  
Mean Temperature 48 °F 62 °F  
Max Temperature 59 °F 73 °F 86 °F (1907)
Min Temperature 36 °F 51 °F 31 °F (1983)
Degree Days  
Heating Degree Days 17 5  
Month to date heating degree days 245 164  
Since 1 July heating degree days 1421 1606  
Cooling Degree Days 0 1  
Month to date cooling degree days 13 25  
Year to date cooling degree days 40 41  
Moisture  
Dew Point 23 °F    
Average Humidity 44    
Maximum Humidity 70    
Minimum Humidity 17    
Precipitation  
Precipitation 0.00 in 0.21 in 4.38 in (1872)
Month to date precipitation 0.53 4.97  
Year to date precipitation 14.71 15.74  
Snow  
Snow 0.00 in 0.00 in - ()
Month to date snowfall 0.0 0.1  
Since 1 July snowfall 0.0 0.2  
Snow Depth 0.00 in    
Sea Level Pressure  
Sea Level Pressure 30.09 in    
Wind  
Wind Speed 12 mph (NW)    
Max Wind Speed 23 mph    
Max Gust Speed 35 mph    
Visibility 10 miles    
Events      
T = Trace of Precipitation, MM = Missing Value Source: NWS Daily Summary

Daily Weather History Graph

Daily Weather History Graph

Search for Another Location

Airport:

Trip Planner

Search our weather history database for the weather conditions in past years. The results will help you decide how hot, cold, wet, or windy it might be!

Date:

Astronomy

Mar. 25, 2013 Rise Set
Actual Time 6:50 AM CDT 7:07 PM CDT
Civil Twilight 6:26 AM CDT 7:31 PM CDT
Nautical Twilight 5:58 AM CDT 8:00 PM CDT
Astronomical Twilight 5:29 AM CDT 8:28 PM CDT
Moon 5:42 PM CDT (3/25) 5:27 AM CDT (3/25)
Length of Visible Light 13h 05m
Length of Day
12h 17m
Waxing Gibbous, 96% of the Moon is Illuminated
Mar 25
Waxing Gibbous
Mar 27
Full
Apr 2
Last Quarter
Apr 10
New
Apr 18
First Quarter

Hourly Weather History & Observations

Time (CDT) Temp. Windchill Dew Point Humidity Pressure Visibility Wind Dir Wind Speed Gust Speed Precip Events Conditions
12:56 AM 45.0 °F 40.6 °F 30.0 °F 56% 29.97 in 10.0 mi NW 8.1 mph - N/A   Clear
1:56 AM 44.1 °F 38.6 °F 30.0 °F 58% 29.99 in 10.0 mi NW 10.4 mph - N/A   Clear
2:56 AM 42.1 °F 35.2 °F 28.9 °F 60% 30.01 in 10.0 mi NW 12.7 mph 18.4 mph N/A   Clear
3:56 AM 39.9 °F 33.4 °F 28.0 °F 63% 30.01 in 10.0 mi NW 10.4 mph - N/A   Clear
4:56 AM 39.0 °F 32.8 °F 26.1 °F 60% 30.02 in 10.0 mi NW 9.2 mph 16.1 mph N/A   Clear
5:56 AM 37.0 °F 31.0 °F 26.1 °F 65% 30.04 in 10.0 mi NW 8.1 mph - N/A   Clear
6:56 AM 36.0 °F 29.6 °F 26.1 °F 67% 30.08 in 10.0 mi NW 8.1 mph - N/A   Clear
7:56 AM 39.0 °F 31.4 °F 27.0 °F 62% 30.11 in 10.0 mi NW 12.7 mph 18.4 mph N/A   Clear
8:56 AM 41.0 °F 33.5 °F 26.1 °F 55% 30.13 in 10.0 mi NW 13.8 mph 21.9 mph N/A   Clear
9:56 AM 45.0 °F 39.3 °F 26.1 °F 48% 30.14 in 10.0 mi NW 11.5 mph 23.0 mph N/A   Clear
10:56 AM 48.0 °F - 24.1 °F 39% 30.13 in 10.0 mi NW 11.5 mph 19.6 mph N/A   Clear
11:56 AM 52.0 °F - 21.9 °F 31% 30.14 in 10.0 mi NNW 15.0 mph 24.2 mph N/A   Clear
12:56 PM 55.9 °F - 19.9 °F 25% 30.12 in 10.0 mi NNW 17.3 mph 26.5 mph N/A   Clear
1:56 PM 57.0 °F - 16.0 °F 20% 30.10 in 10.0 mi NW 19.6 mph 31.1 mph N/A   Clear
2:56 PM 57.0 °F - 17.1 °F 21% 30.07 in 10.0 mi WNW 15.0 mph 26.5 mph N/A   Clear
3:56 PM 57.9 °F - 14.0 °F 18% 30.06 in 10.0 mi WNW 19.6 mph 31.1 mph N/A   Clear
4:56 PM 57.0 °F - 15.1 °F 19% 30.06 in 10.0 mi NW 13.8 mph 24.2 mph N/A   Clear
5:56 PM 55.0 °F - 12.9 °F 19% 30.08 in 10.0 mi NW 16.1 mph 28.8 mph N/A   Clear
6:56 PM 52.0 °F - 17.1 °F 25% 30.11 in 10.0 mi NW 10.4 mph 18.4 mph N/A   Clear
7:56 PM 50.0 °F - 19.0 °F 29% 30.15 in 10.0 mi NW 6.9 mph - N/A   Clear
8:56 PM 46.0 °F 41.9 °F 23.0 °F 40% 30.18 in 10.0 mi NNW 8.1 mph - N/A   Clear
9:56 PM 43.0 °F 39.5 °F 24.1 °F 47% 30.21 in 10.0 mi NNW 5.8 mph - N/A   Clear
10:56 PM 41.0 °F 36.4 °F 25.0 °F 53% 30.22 in 10.0 mi North 6.9 mph - N/A   Clear
11:56 PM 39.9 °F 36.7 °F 25.0 °F 55% 30.23 in 10.0 mi NNW 4.6 mph - N/A   Clear